Location: Bannatyne
(13.0833°N, 59.5333°W)
Time: 14:58:21
(UTC+00:00)

Vanguard 3 - Pass Details

Date: 27 January 2020
Orbit: 508 x 3263 km, 33.3° (Epoch: 22 February)

Event Time Altitude Azimuth Distance (km) Brightness Sun altitude
Rises 15:11:38 0° 189° (S) 4,582 11.4 55.2°
Reaches altitude 10° 15:15:57 10° 170° (S) 4,093 11.5 55.7°
Maximum altitude 15:22:51 17° 133° (SE) 4,209 11.6 56.3°
Drops below altitude 10° 15:31:43 10° 98° (E) 5,516 11.7 57.0°
Sets 15:39:10 0° 82° (E) 6,951 11.9 57.5°
